Vorticity
12 9 9 9 9 8 9 8 8 7 9 9 9 9 9 9 8 8 8 8 7 7 7 7 7 7 7 6 6 5 5 6 6 5 5 6 5 5 5 5 6 6 6
1 2 5 7 7 6 8 7 7 6 7 7 8 9 9 8 8 8 8 8 8 7 7 7 7 7 6 6 6 5 6 7 5 5 4 5 5 4 5 6 6 6 6
13 7 10 7 7 6 7 6 6 5 7 7 8 7 8 8 8 8 8 8 8 8 7 7 7 6 6 5 5 6 5 4 5 5 4 6 5 5 5 5 5 6 6
11 7 8 7 7 6 6 6 5 5 6 7 6 7 8 8 8 8 8 8 8 7 8 7 7 6 6 6 5 5 5 6 5 6 5 5 5 5 6 5 6 6 6
4 4 4 5 6 6 6 6 6 6 5 6 6 7 7 8 9 9 9 8 8 8 8 7 7 6 6 5 5 5 5 5 5 4 4 4 4 5 6 5 5 6 6
5 -1 -1 2 3 6 5 6 5 6 6 6 7 7 8 8 9 9 9 9 8 8 8 8 8 7 6 6 5 5 5 4 5 4 4 4 4 4 4 5 5 4 5
6 5 6 6 5 5 6 7 7 7 6 6 7 8 9 9 9 9 9 9 9 9 9 8 8 8 7 7 6 6 5 5 5 4 4 4 4 4 4 5 5 5 5
9 11 9 7 8 9 8 7 8 8 7 7 7 7 8 10 10 10 10 10 10 9 9 9 9 8 8 8 7 7 6 6 6 6 5 5 5 5 5 5 5 5 5
14 15 14 11 13 12 12 11 11 9 7 6 6 7 9 11 11 10 10 10 10 10 9 9 9 9 8 8 8 8 7 7 7 6 6 6 6 5 5 5 5 5 5
10 13 14 14 13 13 13 15 14 11 8 7 7 8 9 9 10 10 10 10 10 11 10 10 10 9 9 9 9 9 8 8 8 7 7 7 6 6 6 6 6 6 6
14 12 14 12 9 9 12 13 12 8 5 5 7 8 10 10 10 9 9 10 10 10 10 10 9 9 9 9 8 8 8 9 8 9 8 8 8 8 8 7 7 7 7
18 16 14 13 14 14 15 14 11 9 7 8 8 9 9 9 9 9 9 10 10 11 10 10 10 9 9 8 8 8 8 8 8 8 8 8 8 9 8 8 8 8 7
14 13 13 14 16 19 17 13 10 9 8 8 10 10 8 9 8 9 11 12 12 12 12 11 10 10 9 9 8 7 7 7 7 8 8 8 7 8 8 8 8 8 8
13 11 12 12 13 12 11 10 9 8 10 11 10 10 10 13 13 10 5 2 0 -1 -0 1 2 3 5 7 7 8 8 8 8 7 7 6 7 8 9 9 9 8 8
10 10 11 12 10 9 8 9 10 11 11 9 12 14 10 5 2 0 -1 1 6 12 15 14 12 10 9 9 10 10 11 12 11 12 13 14 15 15 14 11 9 8 8
12 13 11 9 8 8 8 9 8 9 13 12 8 3 0 -0 0 4 11 14 11 7 5 5 6 6 6 6 6 5 4 4 3 3 3 3 4 4 5 7 10 11 10
16 14 9 9 7 8 7 6 12 13 8 3 1 0 1 5 10 12 8 4 4 6 6 6 6 6 6 5 5 5 5 5 5 7 9 10 11 12 14 13 11 14 16
12 12 9 7 7 11 13 13 9 4 1 0 0 3 8 12 7 5 6 7 6 6 6 6 6 6 6 6 7 7 8 9 9 10 11 10 11 12 11 12 14 15 9
12 15 12 11 13 13 8 4 3 2 1 2 6 11 11 7 7 9 8 6 6 5 6 7 7 8 8 9 10 13 14 13 12 11 11 11 12 12 9 11 12 9 18
12 12 13 13 9 6 5 5 4 4 6 8 10 9 8 8 6 6 5 5 5 6 7 8 9 10 13 15 14 12 10 10 10 8 9 11 12 15 16 13 11 10 13
11 13 11 8 6 5 5 5 5 5 8 12 10 8 6 5 5 4 4 5 7 8 10 11 12 13 13 12 10 8 8 8 8 9 9 10 12 13 14 15 13 11 10
14 11 9 7 6 5 4 4 6 11 12 10 7 5 4 4 4 4 5 7 9 11 12 12 12 12 12 11 10 10 10 9 9 9 10 11 11 12 15 12 14 14 14
16 10 8 6 4 6 6 8 11 12 8 5 4 4 5 6 6 7 9 11 13 13 13 12 12 11 10 10 10 9 10 11 11 11 12 13 12 12 14 17 16 15 13
18 14 11 9 12 12 14 12 8 6 5 5 5 5 6 8 10 12 13 14 13 12 10 9 9 10 10 10 10 10 9 9 11 12 11 11 11 11 12 15 16 13 10
20 18 16 16 13 9 6 5 4 5 5 4 5 7 9 11 12 12 12 13 12 11 10 10 10 10 9 10 12 13 13 12 10 11 11 9 9 11 11 12 18 16 13
13 12 9 6 3 4 4 5 7 3 5 10 8 9 11 13 13 12 11 10 9 9 10 10 9 9 11 11 10 8 8 8 9 8 9 9 10 9 10 11 13 14 14
Height
3120 3120 3122 3125 3127 3130 3133 3136 3139 3141 3143 3145 3147 3149 3151 3153 3155 3157 3159 3161 3163 3165 3167 3169 3171 3173 3175 3177 3179 3180 3182 3183 3185 3186 3187 3188 3188 3189 3189 3189 3190 3190 3189
3114 3115 3117 3120 3123 3126 3130 3132 3135 3137 3139 3141 3144 3146 3148 3150 3151 3154 3155 3158 3160 3162 3164 3166 3169 3171 3173 3175 3176 3178 3180 3181 3183 3184 3185 3186 3188 3187 3187 3188 3188 3187 3187
3108 3110 3112 3115 3119 3122 3125 3128 3131 3133 3135 3138 3140 3142 3144 3146 3148 3150 3153 3154 3157 3159 3161 3163 3166 3168 3170 3172 3174 3176 3177 3179 3181 3182 3184 3184 3185 3185 3185 3186 3186 3185 3185
3102 3105 3107 3110 3114 3117 3121 3123 3126 3128 3131 3134 3135 3138 3141 3143 3145 3146 3149 3151 3153 3155 3158 3160 3163 3165 3167 3169 3171 3173 3175 3176 3178 3179 3180 3181 3182 3182 3183 3183 3183 3183 3182
3098 3100 3102 3105 3108 3112 3115 3119 3121 3123 3126 3128 3130 3133 3136 3139 3140 3143 3145 3147 3149 3152 3154 3157 3159 3161 3164 3166 3168 3170 3171 3173 3174 3176 3177 3177 3178 3179 3180 3179 3180 3179 3179
3090 3094 3096 3099 3102 3105 3107 3112 3115 3118 3120 3123 3126 3129 3132 3134 3136 3138 3141 3143 3145 3147 3150 3152 3155 3157 3160 3162 3164 3165 3167 3169 3170 3171 3172 3173 3174 3175 3176 3176 3176 3176 3176
3081 3085 3088 3091 3094 3097 3100 3105 3108 3112 3115 3118 3121 3124 3126 3129 3131 3133 3136 3138 3140 3143 3145 3148 3150 3153 3155 3157 3159 3161 3162 3164 3166 3167 3168 3169 3169 3170 3170 3171 3171 3172 3172
3072 3075 3079 3083 3086 3090 3092 3097 3102 3106 3109 3112 3115 3118 3121 3123 3126 3128 3130 3133 3135 3137 3140 3143 3145 3147 3150 3152 3154 3155 3157 3159 3160 3162 3163 3163 3164 3165 3165 3166 3166 3166 3167
3066 3067 3071 3073 3078 3081 3084 3089 3095 3099 3102 3106 3108 3112 3115 3117 3120 3122 3125 3127 3130 3132 3134 3137 3139 3142 3144 3146 3148 3150 3151 3153 3154 3155 3156 3157 3158 3159 3158 3159 3159 3159 3160
3058 3060 3063 3066 3070 3074 3077 3081 3088 3093 3096 3099 3102 3106 3109 3111 3114 3116 3119 3121 3124 3126 3128 3131 3134 3136 3138 3140 3142 3143 3145 3147 3148 3149 3150 3151 3152 3152 3152 3152 3152 3152 3152
3051 3054 3056 3060 3063 3067 3071 3075 3080 3086 3089 3093 3096 3100 3103 3105 3108 3110 3112 3115 3118 3120 3122 3125 3127 3130 3131 3133 3135 3136 3138 3140 3141 3142 3143 3144 3144 3145 3146 3145 3145 3145 3144
3045 3048 3050 3054 3058 3061 3064 3068 3074 3079 3084 3088 3091 3094 3096 3099 3102 3104 3106 3109 3112 3114 3116 3119 3121 3123 3124 3126 3127 3129 3130 3131 3132 3133 3134 3135 3136 3137 3137 3137 3137 3137 3136
3039 3041 3045 3048 3051 3055 3059 3064 3070 3074 3078 3082 3085 3088 3091 3094 3096 3098 3101 3104 3106 3109 3111 3113 3115 3116 3118 3119 3121 3122 3122 3123 3124 3125 3126 3127 3127 3128 3128 3128 3128 3128 3127
3033 3036 3039 3043 3046 3051 3056 3060 3065 3069 3072 3076 3080 3083 3086 3089 3091 3093 3096 3099 3101 3103 3105 3107 3109 3110 3111 3112 3113 3114 3115 3115 3116 3117 3117 3118 3118 3119 3119 3119 3119 3119 3118
3028 3032 3035 3039 3043 3047 3052 3056 3059 3064 3067 3071 3074 3077 3080 3083 3086 3088 3090 3092 3094 3096 3097 3099 3100 3101 3102 3103 3104 3105 3106 3106 3107 3108 3108 3108 3108 3109 3109 3109 3110 3109 3109
3025 3028 3032 3036 3039 3043 3047 3051 3055 3058 3061 3065 3069 3072 3075 3078 3080 3082 3083 3085 3086 3088 3089 3090 3092 3093 3094 3095 3095 3096 3097 3097 3098 3098 3098 3098 3098 3099 3098 3098 3097 3097 3097
3021 3024 3027 3030 3035 3039 3042 3046 3050 3053 3057 3061 3064 3066 3069 3071 3073 3074 3076 3078 3079 3081 3082 3083 3084 3085 3086 3086 3087 3087 3087 3088 3088 3088 3088 3087 3088 3087 3086 3085 3085 3085 3085
3015 3018 3023 3026 3029 3034 3038 3041 3045 3048 3052 3055 3058 3060 3061 3063 3065 3067 3069 3071 3072 3073 3074 3075 3076 3076 3077 3076 3076 3076 3076 3076 3076 3076 3076 3075 3074 3075 3074 3073 3072 3073 3073
3010 3014 3018 3021 3025 3029 3033 3036 3040 3043 3046 3049 3051 3053 3054 3056 3058 3060 3062 3063 3064 3065 3065 3066 3066 3066 3066 3066 3065 3065 3064 3065 3064 3064 3063 3062 3062 3062 3061 3061 3061 3061 3061
3003 3008 3012 3016 3020 3024 3027 3031 3034 3037 3039 3041 3043 3045 3047 3049 3050 3051 3052 3053 3054 3054 3054 3054 3054 3053 3054 3053 3053 3052 3052 3053 3053 3053 3052 3051 3051 3050 3049 3049 3050 3049 3052
2997 3002 3006 3010 3014 3018 3022 3025 3027 3029 3031 3033 3035 3037 3038 3039 3040 3041 3042 3043 3043 3043 3043 3043 3042 3042 3042 3042 3042 3041 3040 3040 3041 3041 3042 3041 3039 3037 3037 3036 3036 3039 3040
2991 2996 3001 3005 3009 3012 3015 3017 3020 3022 3023 3025 3027 3028 3028 3029 3030 3030 3031 3031 3031 3031 3031 3030 3030 3030 3030 3030 3031 3030 3029 3028 3028 3029 3029 3029 3028 3026 3025 3025 3026 3027 3027
2987 2991 2995 2999 3002 3004 3007 3009 3010 3013 3015 3016 3017 3018 3018 3018 3019 3019 3019 3019 3019 3019 3019 3018 3018 3019 3019 3019 3019 3019 3018 3017 3016 3017 3016 3016 3016 3014 3014 3014 3015 3015 3015
2980 2984 2988 2991 2994 2996 2998 3000 3003 3005 3006 3007 3007 3008 3008 3008 3008 3008 3008 3008 3008 3007 3007 3007 3007 3008 3008 3008 3007 3007 3007 3006 3006 3005 3004 3004 3003 3003 3003 3003 3004 3004 3005
2976 2979 2982 2984 2986 2988 2991 2993 2995 2996 2997 2997 2997 2998 2998 2998 2997 2997 2997 2997 2997 2997 2996 2996 2996 2996 2996 2996 2996 2995 2995 2995 2994 2993 2993 2993 2992 2992 2993 2993 2994 2994 2994
2970 2973 2976 2978 2981 2983 2984 2985 2986 2987 2987 2987 2988 2988 2988 2987 2987 2987 2986 2986 2986 2986 2985 2984 2984 2985 2984 2984 2984 2983 2983 2982 2981 2980 2981 2982 2982 2982 2982 2982 2982 2983 2983